Home   Weather   Porto Alegre   Past weeks

Flag for Brazil Past Weather in Porto Alegre, Rio Grande do Sul, Brazil — Yesterday and Last 2 Weeks

Now
72 °F

Clear.


Feels Like: 74 °F
Forecast: 66 / 84 °F
Wind: 10 mph from Southeast

Location: Porto Alegre Aero-Porto

Current Time: Jan 21, 2017 at 2:30:04 am

Latest Report: Jan 21, 2017 at 1:00 am


Visibility: 10 mi

Pressure: 30.09 "Hg

Humidity: 73%

Dew Point: 63 °F

Location of Porto AlegreLocation

Past Weather in Porto Alegre — Graph

°F

Porto Alegre Temperature Yesterday

Maximum temperature yesterday: 84 °F (at 2:00 pm)
Minimum temperature yesterday: 66 °F (at 6:00 am)
Average temperature yesterday: 75 °F

High & Low Weather Summary for the Past Weeks

 TemperatureHumidityPressure
High91 °F (Jan 13, 5:00 pm)100% (Jan 16, 8:00 pm)30.12 "Hg (Jan 16, 8:00 pm)
Low34 °F (Jan 16, 8:00 pm)43% (Jan 11, 4:00 pm)29.56 "Hg (Jan 17, 4:00 pm)
Average78 °F72%29.85 "Hg
* Reported Jan 6 1:00 am — Jan 21 1:00 am, Porto Alegre, Weather by CustomWeather, © 2017

Note: Actual official high and low records may vary slightly from our data, if they occured in-between our weather recording intervals... More about our weather records

Advertising

Porto Alegre Weather History for the Previous 24 Hours

Scroll right to see more
 ConditionsComfort  
Time TempWeatherWind HumidityBarometerVisibility
1:00 am
Sat, Jan 21
72 °FClear.10 mph73%30.09 "Hg10 mi
12:00 am72 °FClear.14 mph73%30.09 "Hg10 mi
11:00 pm
Fri, Jan 20
72 °FClear.13 mph73%30.09 "Hg10 mi
10:00 pm73 °FClear.15 mph74%30.09 "Hg10 mi
9:00 pm75 °FPassing clouds.14 mph69%30.07 "HgN/A
8:00 pm77 °FScattered clouds.17 mph61%30.07 "HgN/A
7:00 pm81 °FPassing clouds.17 mph58%30.04 "HgN/A
6:00 pm82 °FScattered clouds.16 mph55%30.04 "HgN/A
5:00 pm84 °FScattered clouds.12 mph51%30.04 "HgN/A
4:00 pm84 °FScattered clouds.13 mph45%30.07 "HgN/A
3:00 pm84 °FScattered clouds.12 mph45%30.07 "HgN/A
2:00 pm84 °FScattered clouds.9 mph45%30.09 "HgN/A
1:00 pm82 °FScattered clouds.9 mph48%30.09 "HgN/A
12:00 pm81 °FScattered clouds.10 mph54%30.12 "HgN/A
11:00 am79 °FScattered clouds.9 mph58%30.12 "HgN/A
10:00 am77 °FPassing clouds.10 mph61%30.12 "HgN/A
9:00 am73 °FSunny.6 mph69%30.12 "Hg10 mi
8:00 am70 °FSunny.5 mph78%30.12 "Hg10 mi
7:00 am66 °FSunny.6 mph83%30.09 "Hg10 mi
6:00 am66 °FClear.3 mph83%30.07 "Hg10 mi
5:00 am68 °FClear.7 mph78%30.07 "Hg10 mi
4:00 am68 °FClear.6 mph78%30.07 "Hg10 mi
3:00 am70 °FClear.8 mph73%30.07 "Hg10 mi
2:00 am70 °FClear.7 mph78%30.07 "Hg10 mi
Weather by CustomWeather, © 2017

See weather overviewHow to use our weather pages